Location: Starhoo Observatory
(41.8578°N, 70.9669°W)
Time: 14:48:06
(UTC-04:00)

ISS - Visible Passes

Search period start: 01 July 2016 00:00
Search period end: 11 July 2016 00:00
Orbit: 402 x 404 km, 51.6° (Epoch: 02 July)

Date Brightness Start Highest point End Pass type
(mag) Time Alt. Az. Time Alt. Az. Time Alt. Az.
08 Jul -2.0 04:37:19 10° SSW 04:40:15 32° SE 04:43:12 10° ENE visible
09 Jul -1.1 03:46:02 13° SSE 03:47:35 17° SE 03:49:47 10° E visible
10 Jul -3.3 04:27:53 12° SW 04:30:51 77° SE 04:34:06 10° ENE visible
